Home > Weather > Harrisburg > Past weeks

Flag for U.S.A. Weather for the Past 2 Weeks in Harrisburg, Pennsylvania, U.S.A.

Now
19 °F

Clear.


Feels Like: 3 °F
Forecast: 11 / 21 °F
Wind: 21 mph from Northwest

Location: Capital City Airport

Current Time: Feb 13, 2016 at 6:46:07 AM

Latest Report: Feb 13, 2016 at 5:56 AM


Visibility: 9 mi

Pressure: 30.08 "Hg

Humidity: 39%

Dew point: -2 °F

Location of HarrisburgLocation

Historic Weather in Harrisburg — Graph

°F

Harrisburg Temperature Yesterday

Maximum temperature yesterday: 24 °F (at 2:56 PM)
Minimum temperature yesterday: 7 °F (at 5:56 AM)
Average temperature yesterday: 18 °F

High & Low Weather Summary for the Past Weeks

 TemperatureHumidityPressure
High50 °F (Jan 31, 2:56 PM)97% (Feb 3, 9:56 AM)30.44 "Hg (Feb 3, 9:56 AM)
Low7 °F (Feb 12, 5:56 AM)31% (Feb 7, 2:56 PM)29.55 "Hg (Jan 29, 5:56 AM)
Average33 °F64%30.00 "Hg
* Reported Jan 29 5:56 AM — Feb 13 5:56 AM, Harrisburg, Weather by CustomWeather, © 2016

Note: Actual official high and low records may vary slightly from our data, if they occured in-between our weather recording intervals... More about our weather records

Advertising

Harrisburg Weather History for the Previous 24 Hours

 ConditionsComfort  
Time TempWeatherWind HumidityBarometerVisibility
5:56 AM
Sat, Feb 13
19 °FClear.21 mph39%30.08 "Hg9 mi
4:56 AM20 °FPassing clouds.14 mph48%30.04 "Hg10 mi
3:56 AM21 °FClear.14 mph45%29.99 "Hg10 mi
2:56 AM20 °FPassing clouds.10 mph62%29.97 "Hg10 mi
1:56 AM18 °FPassing clouds.8 mph71%29.95 "Hg10 mi
12:56 AM18 °FPassing clouds.6 mph77%29.96 "Hg10 mi
11:56 PM
Fri, Feb 12
19 °FClear.5 mph81%29.97 "Hg7 mi
10:56 PM21 °FOvercast.3 mph81%29.98 "Hg8 mi
9:56 PM21 °FLight snow. Mostly cloudy.6 mph81%30.00 "Hg5 mi
9:01 PM21 °FLight snow. Overcast.3 mph81%29.99 "Hg2 mi
7:56 PM21 °FLight snow. Overcast.No wind78%30.01 "Hg3 mi
6:56 PM21 °FOvercast.No wind74%30.01 "Hg7 mi
5:56 PM22 °FLight snow. Overcast.5 mph66%30.03 "Hg5 mi
4:56 PM23 °FMostly cloudy.No wind55%30.04 "Hg8 mi
3:56 PM23 °FMostly cloudy.7 mph48%30.05 "Hg10 mi
2:56 PM24 °FOvercast.7 mph42%30.08 "Hg10 mi
1:56 PM23 °FScattered clouds.6 mph40%30.11 "Hg10 mi
12:56 PM22 °FSunny.8 mph42%30.15 "Hg10 mi
11:56 AM22 °FPassing clouds.5 mph40%30.20 "Hg10 mi
10:56 AM21 °FLight snow. Scattered clouds.10 mph45%30.24 "Hg10 mi
9:56 AM19 °FScattered clouds.3 mph49%30.27 "Hg10 mi
8:56 AM16 °FSunny.8 mph53%30.28 "Hg10 mi
7:56 AM10 °FSunny.No wind69%30.28 "Hg10 mi
6:56 AM10 °FClear.No wind67%30.29 "Hg9 mi
Weather by CustomWeather, © 2016

See weather overviewHow to use our weather pages